Location: Cardiff
(53.7833°N, 113.6000°W)
Time: 18:59:44
(UTC+00:00)

RS-15 - Pass Details

Date: 05 December 2023
Orbit: 1893 x 2151 km, 64.8° (Epoch: 24 February)

Event Time Altitude Azimuth Distance (km) Brightness Sun altitude
Exits shadow 11:09:51 50° 328° (NNW) 2,418 8.2 -37.6°
Maximum altitude 11:13:30 74° 37° (NE) 2,039 8.0 -37.1°
Drops below altitude 10° 11:24:35 10° 123° (ESE) 4,310 10.3 -35.5°
Sets 11:27:48 0° 126° (SE) 5,288 10.9 -35.0°
